Simultaneous Nadir Overpasses (SNOs) Predictions

Prediction of SNOs between GOES-17 and METOP-C Satellite Orbit:

Table of predicted SNOs for the next 14.0 days since TLE Epoch: 5/18/2024
Index Date Time (GOES-17) GOES-17 Lat,Lon METOP-C Lat,Lon Distance(km) Time Diff (sec)
1 05/18/2024 16:25:35 0.01,-104.71 -0.23,-103.64 121.45 80
2 05/20/2024 04:44:37 -0.01,-104.70 -0.79,-108.24 402.99 80
3 05/21/2024 04:21:19 -0.01,-104.71 0.31,-103.25 165.99 80
4 05/22/2024 16:40:12 0.01,-104.71 0.69,-107.81 353.00 80
5 05/23/2024 16:22:14 0.01,-104.71 -0.43,-102.82 215.80 80
6 05/25/2024 04:41:16 -0.00,-104.70 -0.58,-107.42 309.38 80
7 05/26/2024 04:17:57 0.01,-104.70 0.54,-102.43 259.01 80
8 05/27/2024 16:39:30 -0.01,-104.70 0.48,-106.99 260.63 80
9 05/28/2024 16:16:11 -0.02,-104.70 -0.64,-102.00 307.95 80
10 05/30/2024 04:37:53 0.02,-104.69 -0.41,-106.59 216.94 80
11 05/31/2024 04:14:34 0.03,-104.68 0.73,-101.60 351.82 80
